RH
18 18 19 19 19 18 18 17 15 14 13 13 12 11 10 9 9 9 10 12 15 17 18 18 18 18 18 18 18 18 18 19 19 18 18 17 17 18 18 18 18 17 17 18 18 19 19 19 19 20 20 21 21 21 22 22 22 23 23 23 23 23 24 25 25 23 22 20 18 17 17 17 17 16 15 15 15 15 16 15 14 15 17 20 26 41 56 59
18 19 19 19 18 17 16 14 13 12 11 10 10 9 8 7 6 7 8 10 12 15 17 17 18 18 18 18 17 17 17 18 19 19 18 18 18 18 18 18 18 18 18 18 18 18 19 19 19 19 20 20 21 21 21 21 22 23 23 24 24 25 26 26 26 24 23 22 20 19 19 19 18 17 16 15 16 16 16 17 15 13 14 16 22 36 49 50
19 19 19 18 17 15 13 12 11 10 9 9 8 7 6 5 5 6 7 9 11 13 15 16 16 16 16 16 15 15 15 16 18 18 18 18 18 18 19 18 18 18 18 18 18 18 18 19 19 19 19 19 20 20 20 20 21 21 22 23 25 26 27 26 26 25 24 23 22 21 21 21 20 18 17 16 17 16 16 17 15 18 17 19 31 43 49 50
19 19 18 16 14 12 11 10 9 9 9 8 8 7 6 5 5 6 7 8 10 11 13 14 14 14 14 13 13 13 13 15 16 17 18 18 18 18 18 18 18 18 18 17 17 17 17 18 19 19 18 18 19 19 19 19 19 19 20 21 23 25 25 25 25 25 24 24 23 23 23 22 21 20 18 18 17 17 20 21 25 41 45 40 46 52 56 59
19 17 16 13 11 11 10 10 9 9 9 8 7 6 6 6 7 7 8 8 9 10 11 12 12 12 12 11 11 11 12 14 15 17 17 17 18 17 17 17 15 15 14 14 14 15 16 17 18 18 18 18 18 18 18 18 18 18 19 20 22 22 23 23 23 23 23 23 23 23 23 23 22 21 19 18 18 20 28 37 47 59 57 51 56 59 62 68
17 15 13 12 11 11 11 11 10 9 9 9 8 7 7 8 8 9 9 9 10 10 11 11 11 11 11 11 11 11 12 13 14 16 16 16 16 15 13 12 11 11 10 11 12 13 14 16 17 17 18 18 18 18 17 18 18 18 18 19 20 20 20 20 20 20 20 21 22 22 22 22 21 21 19 18 19 20 24 39 52 55 55 57 66 72 74 77
16 14 12 11 12 12 12 12 12 11 10 10 9 8 8 9 10 10 10 10 10 11 11 11 11 12 12 12 12 11 12 12 14 15 15 14 12 10 9 9 9 9 10 10 11 12 14 15 16 17 17 17 17 17 17 17 16 16 16 17 18 18 19 18 19 19 19 20 20 21 21 21 21 20 19 19 20 20 22 30 37 47 59 69 78 82 83 84
14 13 12 12 13 13 14 14 14 13 13 11 10 9 9 9 10 11 12 11 11 11 11 11 11 11 11 11 11 11 11 11 12 12 12 10 8 7 7 7 8 9 9 10 10 12 13 14 14 15 15 15 15 15 15 15 15 15 15 16 16 17 18 18 18 18 19 19 19 20 20 20 20 19 21 21 22 24 28 31 36 53 71 81 85 86 86 86
14 13 13 13 14 14 14 15 15 15 15 14 13 11 10 9 10 11 12 12 11 11 11 10 10 10 10 10 10 10 10 10 9 9 8 7 6 7 6 7 7 7 8 9 9 10 10 11 11 11 11 11 11 12 12 12 13 13 13 14 14 15 16 16 17 18 19 18 19 19 19 19 19 22 26 26 26 30 36 42 48 62 76 82 84 86 87 85
14 14 14 14 14 14 14 14 15 15 16 16 15 14 12 11 10 10 12 12 12 11 10 10 9 9 9 8 9 8 8 8 8 7 7 6 6 6 6 6 6 6 7 7 8 8 9 9 9 9 9 9 9 10 10 11 11 11 12 13 13 14 14 15 16 16 17 17 18 18 18 20 19 26 35 35 34 36 43 52 57 64 73 78 82 86 85 80
15 15 15 15 15 15 15 15 15 15 16 16 16 16 16 14 12 10 10 11 12 12 11 10 8 8 8 8 8 7 8 8 7 7 7 7 7 7 7 7 6 6 6 6 6 7 7 8 8 8 8 9 9 9 10 10 11 11 12 12 12 13 13 14 14 15 16 16 17 17 18 21 22 31 40 40 42 43 46 52 56 63 71 76 80 81 78 75
15 16 16 16 17 17 17 17 17 17 16 16 17 17 17 17 15 13 11 10 11 12 12 11 10 9 8 8 8 7 7 7 7 7 7 7 7 7 7 7 7 7 6 6 6 6 6 7 7 7 8 9 9 10 10 10 10 11 11 12 12 12 12 13 13 14 14 15 16 15 19 24 28 38 42 41 43 45 47 50 53 60 67 71 74 74 74 74
17 17 17 18 18 18 18 18 18 18 18 18 18 18 18 18 18 17 15 13 11 11 11 12 12 11 10 8 8 7 7 7 7 7 7 7 7 7 7 7 7 7 7 7 6 7 7 7 7 7 8 8 9 9 9 9 10 10 11 11 11 11 12 12 12 13 12 14 14 15 24 28 31 40 45 45 46 46 48 50 53 58 63 67 69 71 71 69
18 18 19 19 19 20 20 20 20 20 20 20 20 20 20 19 19 18 17 16 14 12 11 11 12 12 12 11 9 8 8 7 7 7 7 7 8 8 8 8 8 8 8 7 8 7 7 7 7 7 8 8 8 8 9 9 9 10 11 11 11 11 11 11 11 12 12 15 14 16 26 29 31 40 46 49 51 51 52 54 56 59 62 65 67 67 65 61
19 19 20 20 21 21 21 21 22 22 22 21 21 21 21 20 20 19 18 18 17 16 13 12 11 11 12 12 11 11 10 9 8 8 8 8 8 8 9 9 9 8 8 8 9 9 8 8 8 7 8 7 8 8 9 9 9 11 11 11 11 11 11 11 11 11 12 15 15 17 25 27 31 40 46 50 52 53 53 53 54 56 58 60 60 59 57 54
20 20 20 21 21 21 21 22 23 24 24 23 23 22 22 21 20 19 19 18 18 18 16 14 12 11 11 12 12 12 12 11 10 10 9 9 8 9 9 10 10 9 9 10 10 10 10 10 10 9 9 8 9 9 10 11 12 12 12 13 13 12 12 12 13 13 13 15 16 18 23 25 32 40 46 49 50 50 51 51 52 53 54 55 55 55 52 47
20 20 20 21 21 22 22 22 24 25 25 24 24 23 22 21 20 19 19 18 18 18 18 17 15 13 12 12 12 12 12 12 12 12 11 11 10 10 11 11 11 11 11 11 12 13 13 13 13 12 12 12 11 11 12 14 14 14 15 15 14 14 14 14 16 17 17 18 19 20 23 24 31 41 47 50 52 50 51 54 56 57 58 57 55 50 41 33
20 20 20 21 22 22 22 23 25 25 26 25 25 24 22 21 20 19 18 18 18 17 18 19 18 15 13 13 13 13 13 13 13 13 12 12 12 12 12 12 12 12 12 13 14 16 17 16 16 16 17 16 15 15 15 16 15 15 16 16 16 17 17 17 17 19 20 21 22 23 23 22 27 38 47 54 58 55 52 53 53 54 55 51 45 37 28 22
20 20 21 21 22 23 24 25 25 26 26 26 25 25 23 21 20 19 18 17 17 17 18 19 19 18 16 14 13 12 13 14 14 14 13 13 13 13 13 13 14 14 14 15 16 18 19 19 19 19 19 18 18 18 17 17 17 16 17 17 17 18 19 19 18 18 19 21 24 24 22 21 23 31 42 53 62 61 54 50 51 50 47 40 33 27 23 23
19 19 20 21 22 24 25 26 27 27 27 26 26 25 23 21 19 18 17 16 16 16 16 18 20 20 20 19 16 14 13 12 13 14 15 15 14 14 14 14 14 14 15 15 16 18 19 21 22 21 20 19 19 19 19 19 18 18 19 19 19 19 20 19 19 18 18 20 22 22 21 20 20 24 32 42 52 59 56 53 53 48 40 31 26 26 29 31
18 19 21 22 24 26 27 28 28 28 28 27 26 25 22 20 18 17 16 15 15 15 15 16 17 19 21 22 21 20 17 14 13 13 14 16 17 17 16 16 16 16 16 16 17 18 20 22 23 22 22 21 20 20 20 20 20 19 19 20 20 20 21 21 21 20 19 19 20 20 19 19 20 22 27 32 38 48 53 51 47 38 30 26 26 31 35 37
20 22 24 25 27 28 29 30 30 30 29 28 26 24 20 18 16 15 13 12 11 12 13 13 14 16 19 22 23 23 21 18 15 13 13 14 16 18 19 18 18 18 18 18 19 20 21 22 21 21 22 22 22 21 21 21 20 20 20 20 20 20 21 21 21 21 20 20 19 18 18 17 17 20 25 29 32 35 38 37 33 27 24 28 33 36 36 38
25 27 29 30 31 32 32 32 32 31 30 27 24 20 17 15 12 11 10 8 8 8 9 10 12 14 16 19 21 21 22 20 18 16 14 14 14 17 19 21 22 22 21 21 21 21 21 20 18 18 19 20 20 20 21 21 21 21 20 20 20 20 20 21 20 20 19 19 19 18 18 18 16 17 20 24 27 26 25 26 27 27 28 33 38 41 41 42
32 34 36 36 36 36 36 35 34 32 29 25 19 15 13 11 9 8 8 6 5 6 6 7 9 11 14 17 19 20 22 22 21 19 17 16 15 16 17 20 22 23 23 23 24 24 23 21 20 19 19 19 19 19 19 19 20 20 20 20 20 20 19 20 19 19 18 18 18 17 17 18 18 18 18 20 23 24 24 27 30 32 34 38 42 44 45 46
41 42 42 42 41 40 39 37 34 31 25 19 14 11 9 8 7 6 5 5 5 5 5 6 8 9 12 14 17 19 21 22 24 24 23 21 19 18 18 18 18 19 21 21 23 26 26 24 24 24 23 22 22 21 20 20 19 19 20 20 20 20 19 19 19 18 18 19 18 18 18 19 19 21 21 22 24 26 29 33 36 37 36 39 42 42 44 49
48 46 46 46 44 42 39 35 30 25 19 13 10 8 7 7 6 4 5 5 4 4 6 9 14 17 17 18 19 20 23 26 26 27 28 27 26 24 21 18 17 16 15 16 18 21 24 24 25 27 28 28 28 29 27 25 25 24 24 24 23 23 22 22 21 20 21 21 21 21 22 21 20 23 25 25 27 30 34 38 41 42 42 44 46 48 52 57
50 49 48 45 42 38 33 26 21 16 12 9 8 7 6 6 4 5 7 4 6 15 17 19 27 32 34 36 35 33 35 36 35 35 35 35 34 33 30 26 24 22 18 16 16 16 18 18 20 22 24 28 31 33 33 32 32 32 31 31 30 30 30 29 28 26 25 25 25 25 26 25 23 26 30 31 33 36 38 40 40 42 48 56 61 63 63 63
51 50 47 42 36 29 22 16 13 10 8 7 6 5 5 5 5 6 6 5 17 32 34 37 45 49 50 53 54 54 54 51 50 51 50 49 48 46 44 41 38 36 33 30 26 23 21 19 19 19 20 26 32 34 35 35 36 37 36 36 36 35 35 33 31 29 27 24 26 27 27 26 24 27 33 36 40 44 44 43 40 43 55 67 72 71 66 61
51 47 42 34 26 19 13 10 8 7 7 6 6 6 6 6 6 7 6 9 26 42 47 51 56 58 63 67 69 69 67 65 65 64 61 60 59 58 57 55 53 51 48 45 41 36 33 28 26 24 23 26 30 33 35 37 40 40 38 39 40 38 37 35 32 30 27 24 26 28 28 28 26 27 31 35 41 46 49 49 46 51 66 75 77 76 69 59
50 45 36 25 16 12 9 8 7 7 7 7 7 8 8 7 7 7 6 13 29 43 44 40 39 44 53 63 72 75 72 72 73 71 68 65 62 61 60 59 56 54 52 49 47 44 41 39 36 33 31 30 30 31 32 34 37 37 37 37 36 34 32 30 29 27 24 21 22 26 26 26 25 25 27 31 35 41 47 50 50 55 66 73 77 79 74 65
50 42 29 18 12 9 9 9 9 8 8 9 9 9 8 7 8 6 9 21 31 32 28 24 25 30 34 43 57 64 64 64 63 61 62 60 58 56 54 52 49 47 46 45 45 45 44 44 43 42 40 37 35 34 34 33 32 32 34 35 35 35 32 29 29 27 25 23 23 24 23 21 21 21 22 25 27 29 33 38 44 53 61 66 71 75 75 71
48 35 22 14 11 9 10 10 10 10 10 10 10 10 8 8 8 7 13 23 23 19 21 21 20 24 29 38 46 50 50 48 47 49 50 46 41 37 36 37 36 35 35 34 34 35 36 38 41 44 45 42 40 39 37 37 37 38 39 40 43 43 37 34 35 33 32 32 30 28 26 24 23 21 20 21 22 22 21 23 30 41 51 58 62 65 64 60
39 26 17 14 11 10 10 11 11 11 11 11 10 10 9 9 10 10 11 14 13 14 16 14 11 12 19 29 37 41 39 32 29 32 31 25 19 17 19 20 19 18 18 18 17 18 21 26 28 32 39 44 45 45 44 44 43 44 46 47 48 46 40 38 37 35 35 35 34 34 33 32 30 29 27 26 27 25 23 22 23 26 31 36 40 41 40 37
27 18 14 13 11 10 11 11 12 12 12 11 11 10 10 9 10 11 11 11 11 12 11 9 10 9 11 15 22 29 30 25 19 15 14 12 11 11 12 11 10 9 8 8 9 9 14 21 23 23 28 34 39 47 51 52 51 49 49 48 48 47 46 45 43 40 39 39 40 41 43 44 43 43 43 41 41 37 31 27 23 21 21 23 28 30 30 32
21 16 14 12 11 10 10 11 13 13 13 12 11 11 10 10 10 11 11 11 11 11 11 10 9 9 9 10 14 19 24 25 19 11 10 11 13 14 14 13 12 11 9 8 8 8 10 16 22 23 25 27 32 40 43 46 55 57 53 53 55 56 58 58 54 50 48 48 48 48 51 52 53 54 54 53 54 52 46 39 33 28 25 24 27 29 32 39
19 16 13 12 11 10 10 11 12 12 12 11 11 11 10 11 11 11 12 13 13 13 12 12 10 10 9 8 10 14 19 25 24 19 17 18 23 24 22 20 16 13 12 10 9 8 8 10 14 18 22 25 30 37 37 40 51 57 54 58 62 62 60 56 51 45 41 40 41 45 52 58 61 63 62 60 62 64 61 56 51 49 46 41 39 38 39 45
18 16 14 13 12 11 11 11 12 12 13 12 12 12 12 12 11 12 13 13 13 13 13 13 12 11 10 9 9 9 11 17 22 25 26 26 27 24 19 17 15 13 12 11 11 10 8 10 11 12 17 22 25 33 40 42 46 52 54 57 59 58 56 54 54 50 42 37 33 34 43 53 61 67 70 72 75 75 73 69 65 64 65 64 61 60 60 60
17 16 15 13 12 12 11 12 12 13 13 13 13 13 13 13 12 13 13 13 13 13 13 14 13 13 12 11 11 9 9 9 11 15 17 17 18 15 13 13 12 13 12 11 13 11 9 9 10 9 11 16 18 25 37 42 46 55 62 63 65 68 66 66 69 65 57 51 42 35 36 42 51 61 69 75 76 72 70 69 68 65 66 68 68 70 74 76
16 16 15 14 13 12 11 12 12 13 14 14 15 15 14 14 14 13 13 13 13 13 13 13 13 14 13 12 12 11 10 9 8 9 9 9 12 13 12 11 11 12 11 10 11 10 8 7 8 8 8 11 13 16 25 33 40 50 59 64 69 72 71 69 68 66 65 65 58 48 42 39 44 56 67 74 71 64 62 63 66 67 66 67 67 66 71 74
17 16 16 15 14 14 13 12 12 12 13 14 15 15 15 15 14 14 14 14 13 13 14 14 14 14 13 13 13 11 11 10 9 9 8 8 9 10 10 10 11 11 10 10 11 10 8 7 7 8 8 10 12 12 15 18 23 29 38 48 56 62 66 66 64 63 67 73 71 64 55 48 50 59 68 71 66 60 58 57 59 62 64 67 66 64 63 63
19 18 17 16 15 15 14 14 13 13 12 13 14 14 14 15 14 14 14 14 14 13 13 13 13 13 13 13 12 12 11 11 9 9 9 8 7 7 8 8 9 11 11 10 9 8 7 6 6 6 7 9 9 9 11 11 10 12 16 23 30 38 47 54 57 56 58 65 70 71 69 67 66 67 70 72 72 70 67 60 55 54 54 56 57 56 54 51
17 17 17 17 16 16 15 15 15 15 14 13 13 13 13 14 14 14 14 13 14 13 13 13 13 13 13 13 13 12 11 10 10 9 8 8 7 7 7 6 7 8 8 7 6 5 5 5 5 5 6 8 8 8 10 10 9 9 10 13 18 21 27 37 44 48 51 51 54 59 62 64 69 72 73 76 80 81 77 68 59 49 44 44 43 43 42 39
12 14 15 16 16 15 15 15 15 15 16 15 15 14 14 14 14 14 14 13 13 13 13 13 12 12 12 12 12 12 11 11 10 9 8 8 7 7 6 6 6 5 5 5 5 4 5 5 4 4 5 6 7 7 9 9 9 9 9 12 16 19 24 29 33 40 45 43 48 54 48 46 58 67 72 80 85 85 80 70 59 46 37 34 32 31 31 31
10 11 12 12 13 13 13 13 13 14 14 14 14 15 15 15 15 14 15 14 14 14 13 13 13 12 12 12 12 11 11 10 10 10 9 8 8 7 7 6 6 5 5 5 5 5 5 5 5 5 6 6 7 7 8 8 9 10 10 10 13 16 20 24 26 30 33 32 42 49 42 42 53 56 64 78 83 83 80 72 62 51 38 30 26 23 22 23
8 9 9 9 10 10 10 10 10 10 10 10 11 11 12 12 13 13 14 13 13 12 12 11 12 11 11 11 11 10 10 10 9 9 8 8 8 7 7 7 7 7 7 6 6 6 6 7 6 7 7 7 8 9 10 11 11 12 12 13 15 16 18 21 22 24 25 25 30 35 35 41 48 51 62 72 73 74 75 69 58 45 35 31 29 24 20 19
7 7 7 7 7 7 7 7 7 7 7 7 7 7 8 8 9 10 10 10 10 10 9 9 9 9 10 9 10 10 9 9 10 9 9 9 9 9 9 9 9 10 11 11 11 11 11 12 13 13 14 15 16 17 19 21 23 24 25 25 25 25 25 26 26 25 27 28 28 29 32 34 36 45 57 62 64 67 67 62 50 37 31 29 29 27 24 21
8 8 8 8 7 7 7 7 6 6 6 6 6 6 6 7 7 7 7 7 8 7 8 8 8 8 9 8 9 9 9 9 9 9 9 9 9 10 11 12 14 15 17 19 20 21 22 23 23 25 27 28 30 32 33 34 35 37 38 40 40 40 38 37 35 35 36 34 31 31 35 34 33 38 40 41 44 47 47 45 38 32 30 28 26 25 24 23
11 10 9 9 9 9 9 9 9 9 8 8 7 7 7 7 7 7 7 7 7 7 8 9 9 10 10 10 11 11 11 11 11 11 13 15 15 15 15 18 21 24 27 30 31 33 34 34 34 36 37 38 39 40 39 39 39 39 41 44 47 47 46 45 45 45 44 41 37 39 42 39 39 41 40 38 38 38 39 38 34 32 34 36 37 34 33 35
24 22 20 19 19 18 18 18 18 18 17 15 14 12 12 11 11 12 12 11 12 11 12 13 14 15 16 16 17 18 17 18 20 21 22 24 26 26 28 30 32 35 39 42 43 43 42 41 41 41 42 41 41 40 40 40 40 39 41 44 46 47 47 47 48 50 50 47 45 48 49 43 45 52 52 50 48 44 43 42 39 39 39 42 45 43 45 49
24 26 27 28 28 28 29 30 31 33 33 32 30 28 27 26 26 26 26 27 27 25 24 26 27 27 29 29 30 32 31 31 33 33 33 36 38 39 41 43 44 45 46 49 50 49 49 49 47 46 45 43 44 46 45 45 44 42 43 46 47 48 49 49 50 52 52 49 48 52 49 40 45 57 57 54 54 53 51 50 48 46 44 44 44 42 43 46
28 26 26 27 28 29 32 35 37 40 41 42 42 42 41 41 41 40 40 40 42 43 42 43 45 45 45 44 44 45 45 44 45 45 44 46 46 46 46 46 47 48 49 53 55 55 57 57 54 54 48 41 45 52 51 50 46 36 36 45 52 56 57 57 56 57 55 54 53 52 47 42 47 55 53 50 51 51 51 51 50 49 48 46 45 42 41 39
55 51 47 44 42 40 40 40 41 42 43 46 49 50 51 53 53 55 55 54 56 57 57 58 58 57 56 55 54 54 53 52 50 47 45 43 40 38 37 36 37 40 43 47 50 53 57 59 59 58 47 34 39 48 52 50 37 20 24 42 52 56 58 58 59 63 65 64 58 50 47 49 54 57 56 56 55 52 52 51 49 49 49 48 46 44 42 40
Wind_Speed
18 19 19 21 22 23 24 25 25 26 26 26 26 26 26 25 25 24 24 24 24 23 23 23 23 23 23 23 23 23 23 23 23 22 22 22 22 22 22 22 23 23 22 22 21 21 21 21 21 20 20 20 20 21 21 21 21 21 21 21 21 21 22 24 26 27 28 28 27 26 25 26 27 28 28 30 30 27 26 25 26 27 28 29 29 28 28 28
18 19 20 21 22 23 24 24 24 24 25 25 25 25 25 24 24 23 23 23 23 23 23 23 24 24 24 24 24 24 24 23 23 22 22 22 21 22 23 23 23 23 23 22 22 22 22 22 22 21 21 20 20 21 21 21 21 21 21 21 20 21 24 25 26 26 27 27 26 25 24 25 26 27 28 29 29 28 26 24 25 28 29 30 29 28 27 26
18 19 20 21 22 22 22 22 22 23 23 23 24 23 23 22 22 21 22 22 22 23 23 23 24 24 24 24 24 24 24 23 23 22 21 21 22 22 23 23 23 23 24 24 23 23 23 22 23 22 21 21 21 21 21 21 21 21 21 21 22 24 25 25 25 26 26 26 26 25 24 25 26 26 26 27 27 27 25 23 23 24 27 28 27 26 26 26
19 20 20 21 21 20 20 20 20 20 20 21 21 21 20 19 19 19 20 20 21 22 22 22 23 23 23 23 23 23 23 23 23 22 22 22 22 23 24 24 24 24 25 24 24 24 23 23 23 23 22 22 22 22 22 22 21 21 21 22 24 25 25 25 25 26 26 26 26 24 24 25 24 24 25 25 25 24 23 22 21 22 24 26 26 26 26 25
18 19 19 19 18 18 17 17 17 18 18 18 18 18 17 17 17 17 18 19 19 20 20 21 21 21 21 21 21 22 22 23 22 22 22 22 23 24 24 25 25 25 25 24 24 23 23 24 24 23 23 23 23 23 23 22 22 21 21 22 24 24 25 25 25 25 25 25 25 24 24 24 23 23 23 22 22 23 22 21 22 24 26 27 27 27 26 25
18 18 18 17 16 15 15 15 15 15 15 15 15 15 15 15 15 15 16 17 18 18 18 19 19 19 18 19 19 20 21 21 21 21 21 21 22 23 24 24 24 24 23 23 23 23 24 24 24 24 24 23 23 23 23 23 22 22 23 24 24 24 24 24 24 24 24 24 24 23 23 23 22 22 22 22 23 25 26 25 26 27 28 28 27 26 25 23
17 16 16 15 14 13 12 12 13 13 13 13 13 13 13 13 14 14 15 15 16 17 17 17 17 16 16 16 17 18 19 19 20 20 21 21 22 22 22 22 22 22 22 23 23 23 23 24 24 23 23 24 24 24 24 24 23 24 25 25 25 25 24 23 22 22 22 23 23 22 22 22 22 22 22 22 24 26 27 29 30 30 29 28 27 25 24 22
16 15 15 14 13 12 11 11 11 11 11 12 12 11 11 12 13 13 13 14 15 15 15 15 15 14 14 15 15 16 17 18 18 19 20 20 20 20 20 20 20 20 21 22 23 23 23 24 23 23 23 24 24 24 24 24 24 25 26 25 25 25 25 24 23 22 22 23 22 21 21 22 22 22 22 24 25 26 28 30 31 31 29 28 27 25 23 22
15 14 14 13 12 11 11 11 11 11 11 11 11 10 10 11 11 12 12 13 13 14 15 14 14 13 14 14 14 15 15 16 17 17 18 17 17 17 18 18 18 19 20 21 22 23 23 22 22 22 23 23 23 24 22 23 24 24 25 25 25 26 26 25 24 24 24 23 22 21 22 22 22 22 24 25 26 28 30 32 32 31 30 29 27 25 23 23
14 14 13 12 12 12 12 12 11 11 11 11 10 10 10 10 10 11 11 12 13 14 14 14 13 13 13 13 13 14 14 15 15 15 15 15 15 16 17 17 16 17 17 18 19 19 20 20 20 20 21 21 21 21 20 20 21 22 23 23 24 25 26 26 25 26 25 24 23 23 23 23 23 24 26 28 28 30 32 33 33 31 30 29 27 25 24 24
14 13 13 12 12 12 12 12 12 12 12 11 11 10 10 10 10 10 11 12 12 13 14 13 12 12 12 12 13 13 13 14 14 14 14 14 14 14 15 15 15 15 15 16 16 17 18 18 19 19 19 19 19 18 18 18 19 20 21 21 22 24 25 25 25 26 25 25 24 24 24 24 25 25 28 29 31 32 33 34 34 32 31 29 28 26 25 25
14 13 13 12 12 12 12 12 12 13 13 12 11 11 10 10 10 10 10 11 12 13 13 13 13 12 12 12 13 13 13 14 14 14 14 14 14 14 14 14 14 14 14 14 14 15 16 17 18 18 18 18 18 17 16 17 18 19 18 18 20 22 24 24 24 25 25 25 25 25 25 26 26 27 29 30 32 33 34 35 35 34 32 30 29 28 27 25
14 14 13 12 12 12 13 13 13 13 13 13 12 12 11 11 11 11 11 11 12 12 12 13 13 13 13 13 14 14 14 14 14 14 14 14 14 14 14 14 14 13 13 12 11 12 13 15 16 17 18 18 18 16 16 18 19 19 18 18 20 21 23 23 23 24 25 26 27 26 27 28 28 29 30 31 32 33 34 35 35 34 33 32 31 29 27 24
14 14 13 13 13 13 13 13 14 14 14 13 13 13 13 13 13 13 12 12 12 12 12 12 13 14 14 14 14 15 15 15 15 14 14 14 14 14 14 14 14 14 12 11 10 10 11 12 14 15 16 16 16 15 17 18 19 19 18 19 20 19 21 22 22 23 25 27 28 28 29 29 29 30 31 32 33 33 34 34 34 34 33 32 31 29 26 25
15 14 14 14 14 14 14 14 14 14 14 14 14 14 14 14 14 14 14 14 14 13 12 12 13 14 15 15 15 16 16 16 15 15 15 15 15 14 14 14 15 14 13 11 10 10 10 11 12 13 13 13 13 14 16 18 18 18 17 17 18 18 19 20 21 23 25 28 29 29 30 30 30 31 32 32 33 33 33 34 34 33 32 31 30 29 28 27
15 15 15 15 16 16 15 15 15 15 15 15 15 15 15 16 16 16 16 15 15 14 14 13 13 14 15 14 15 17 17 17 16 16 16 16 16 15 15 15 15 14 14 13 11 11 11 10 10 10 10 11 12 14 16 17 17 17 17 16 16 17 18 19 20 22 24 27 29 29 30 30 31 32 31 32 33 32 32 33 33 32 32 31 31 30 30 30
15 16 16 16 17 16 16 17 16 16 16 16 17 17 17 17 17 17 17 16 16 16 15 15 14 15 16 14 14 16 16 17 17 17 17 17 17 16 15 15 15 15 15 14 13 12 11 10 9 10 10 11 13 14 16 17 16 16 16 15 15 17 18 18 20 22 23 26 29 30 30 30 31 32 32 32 33 32 31 32 32 31 31 30 31 31 30 29
16 16 17 17 17 17 17 17 17 17 17 18 18 18 18 18 18 18 17 17 17 17 16 16 16 16 16 16 16 15 16 17 17 18 18 18 18 17 16 16 16 16 16 15 14 13 12 11 11 11 12 13 14 14 15 16 15 15 15 15 15 15 17 18 19 20 22 24 27 30 31 31 32 33 32 32 33 32 32 31 31 30 30 31 31 30 28 26
16 16 17 17 18 18 18 18 19 19 18 19 19 19 19 19 18 18 18 18 18 17 16 16 17 17 16 17 17 17 16 16 17 17 18 18 19 19 18 18 18 18 18 17 16 14 13 13 13 14 16 17 15 14 14 15 15 15 15 15 15 14 15 16 17 18 20 23 25 28 30 30 31 32 33 33 33 33 33 32 31 31 32 31 30 29 26 24
16 17 17 18 18 18 19 19 19 20 20 20 20 20 20 19 19 19 18 19 19 18 18 17 17 17 17 18 18 17 17 17 17 17 17 18 19 19 19 19 19 19 19 19 18 16 15 15 15 18 20 19 17 16 16 16 15 16 16 15 15 15 16 17 18 18 20 21 23 25 26 28 29 30 31 33 34 34 35 35 34 33 32 31 29 27 25 24
16 17 18 18 19 19 19 20 20 20 21 20 21 21 21 20 20 19 19 20 20 19 19 19 19 18 18 18 18 18 17 17 16 17 17 18 18 18 19 19 20 20 20 20 20 19 18 17 19 22 22 21 19 19 18 18 18 17 17 17 17 17 18 19 20 21 21 21 22 22 22 23 24 25 26 29 32 34 36 36 35 34 33 31 29 27 25 24
17 17 18 18 19 20 20 20 21 21 21 21 21 21 21 21 20 20 20 20 20 20 20 20 20 20 19 19 19 19 19 17 17 17 18 18 19 19 19 20 20 20 21 21 21 21 20 21 24 25 24 23 22 21 21 21 20 19 19 19 19 20 21 22 23 24 24 23 23 23 22 22 22 21 22 25 29 32 34 34 35 34 32 29 28 27 27 25
17 17 18 19 20 20 21 21 21 22 22 22 21 21 21 21 20 20 20 20 20 20 20 21 21 21 21 21 21 20 20 18 18 18 18 19 19 19 20 20 20 21 21 21 20 19 20 23 26 26 25 26 25 24 24 23 22 21 21 21 21 22 23 25 26 26 26 25 25 25 24 24 24 21 21 24 27 30 32 32 33 33 31 29 27 27 27 26
17 18 18 19 20 21 22 22 22 22 22 22 21 20 20 20 20 20 19 19 19 19 19 19 20 21 21 22 21 21 20 19 19 18 18 18 18 19 20 20 20 22 22 21 19 18 20 23 24 24 25 25 25 25 25 24 24 23 23 23 24 25 26 27 28 29 28 28 27 26 25 25 25 25 24 24 26 29 31 32 32 33 32 30 30 29 28 26
17 18 19 20 21 22 22 23 23 22 22 21 20 19 19 19 19 19 18 18 17 17 17 17 18 19 20 21 21 21 21 20 19 18 18 18 18 18 19 20 21 22 22 21 20 19 21 23 23 24 24 23 23 23 23 23 23 23 23 23 25 26 28 28 29 29 29 29 28 27 26 26 25 26 26 25 26 28 30 32 32 33 33 32 32 31 28 25
18 18 19 20 21 22 22 22 22 21 21 20 19 18 18 18 18 18 17 16 16 16 16 15 15 16 18 19 19 19 20 20 19 19 19 18 18 18 19 20 21 21 21 20 19 20 22 24 24 24 24 23 22 21 21 22 22 22 22 23 24 25 27 28 28 29 28 29 29 28 27 27 25 25 27 27 27 28 30 32 33 33 33 33 32 30 28 25
18 19 20 20 21 22 22 21 21 20 20 19 18 17 17 16 16 17 16 15 14 15 14 14 14 14 15 16 16 17 18 18 19 18 18 18 18 18 18 19 20 20 20 18 18 19 21 23 25 25 24 23 22 21 22 22 21 21 22 23 24 25 26 27 28 29 29 29 29 28 28 29 26 25 27 29 29 30 31 32 32 32 32 32 31 30 29 28
19 19 20 20 21 21 21 20 20 19 18 17 17 16 15 14 14 15 13 12 12 13 12 11 11 11 12 12 13 14 15 16 16 17 17 17 18 17 17 18 18 19 19 17 18 18 18 20 22 23 22 22 22 22 23 23 22 22 23 23 24 25 26 27 28 29 30 30 29 29 29 30 29 26 27 29 30 31 32 32 32 32 32 33 33 32 31 30
19 20 20 20 20 20 19 19 18 18 17 16 16 15 14 13 13 12 10 10 10 10 10 9 10 10 10 11 12 12 13 14 15 15 16 17 17 16 17 18 18 19 19 17 17 18 17 18 18 18 18 19 21 22 22 23 23 23 24 24 25 26 27 28 28 29 30 30 28 28 29 30 30 28 27 29 31 31 32 33 33 33 34 35 35 34 33 31
21 21 21 20 19 18 18 17 17 17 16 15 15 14 13 12 12 10 8 9 9 9 8 8 9 9 10 10 10 11 13 13 13 14 15 16 17 17 18 19 19 19 19 17 17 18 17 18 18 17 16 17 19 20 21 22 23 24 24 25 26 27 27 27 28 28 29 29 27 28 29 31 31 29 27 28 30 30 32 33 34 35 36 37 37 36 36 33
22 22 21 20 18 17 17 16 16 16 16 15 14 13 12 11 11 10 8 8 9 8 8 9 8 9 10 10 11 12 13 13 13 14 14 15 15 15 16 17 17 18 17 17 17 17 18 19 19 19 18 18 18 19 20 22 23 24 24 25 25 26 25 25 25 25 26 26 25 25 27 28 29 28 26 26 26 27 29 31 34 36 37 37 37 36 36 34
23 22 20 19 17 17 16 15 15 16 16 15 15 14 13 11 11 11 9 9 9 7 8 8 8 8 9 10 11 12 12 12 13 13 14 14 13 14 14 15 16 16 16 16 16 17 18 18 19 19 19 19 19 19 20 20 22 23 23 23 23 24 24 23 23 23 23 23 23 23 24 25 25 25 24 22 22 22 24 26 29 32 34 35 35 36 35 33
23 22 20 18 17 17 16 16 16 16 16 16 16 15 14 12 12 12 11 11 10 8 8 8 9 9 9 11 12 12 12 12 12 13 14 14 14 14 14 14 14 14 14 15 15 15 15 15 17 18 18 19 19 19 19 19 21 22 22 23 23 23 24 23 23 23 22 22 23 23 23 24 23 23 23 21 20 19 20 22 23 25 26 28 30 30 29 27
23 22 20 18 18 17 17 17 17 17 17 17 17 16 16 15 14 14 13 13 12 10 10 10 10 10 10 11 13 14 15 15 14 14 14 13 13 14 14 14 14 14 14 14 14 13 11 12 14 16 16 17 18 19 19 20 21 22 22 23 23 23 23 24 24 24 24 24 24 24 24 24 23 22 21 20 18 17 17 19 20 21 21 21 22 23 22 20
23 22 20 19 18 18 18 18 18 18 18 18 19 18 18 17 16 15 15 14 13 12 11 11 12 12 12 12 13 14 16 17 17 16 16 15 15 15 16 16 17 16 16 15 15 14 12 12 13 14 15 15 16 18 20 21 20 21 23 24 23 23 23 24 25 25 25 26 25 24 24 24 23 22 21 20 18 16 16 18 19 20 20 19 20 20 19 18
24 23 22 21 19 19 20 20 19 19 19 19 20 19 19 19 18 17 16 16 15 14 13 13 13 13 14 14 13 14 14 16 18 18 19 19 19 19 19 20 20 19 19 18 18 17 16 14 13 14 16 15 15 17 19 20 20 21 23 23 22 23 24 24 25 26 27 27 28 26 24 24 23 23 22 20 19 18 17 18 19 19 19 19 20 20 20 19
26 25 24 23 22 22 22 21 21 20 20 20 20 19 19 19 18 18 17 18 18 17 16 16 16 16 16 16 15 15 14 15 17 19 20 21 21 21 21 21 21 21 21 21 21 21 20 19 17 16 17 17 17 18 19 20 21 21 22 22 22 23 24 24 25 27 28 28 29 28 26 25 24 23 22 20 19 18 18 18 19 19 19 19 19 19 20 19
27 27 26 26 25 25 25 24 23 22 22 22 21 21 21 20 19 19 19 19 20 19 18 18 18 19 19 18 18 18 17 17 18 19 20 21 22 22 22 23 23 23 23 23 24 24 24 23 22 20 19 20 20 20 20 22 23 22 23 23 24 24 25 26 26 27 28 29 29 29 28 28 26 25 23 21 21 20 20 20 21 21 21 21 20 18 18 17
28 28 28 28 28 28 28 27 26 26 25 24 24 23 23 23 22 21 21 21 21 22 21 21 20 21 21 21 21 21 21 21 21 21 22 23 24 24 24 25 25 25 26 26 27 27 27 27 26 25 23 23 23 22 22 23 25 25 26 26 27 27 27 28 28 28 29 29 30 30 30 29 27 26 25 24 23 23 22 22 22 23 23 23 22 20 18 18
29 29 28 29 30 31 31 30 29 29 28 27 27 26 26 26 26 25 24 24 24 24 24 23 23 23 23 24 24 24 24 24 24 24 24 25 25 26 26 27 27 28 29 29 30 30 30 31 30 29 28 27 27 26 26 26 26 27 28 29 30 30 30 30 31 31 30 31 32 32 32 30 27 26 27 27 27 26 25 25 24 24 24 24 23 22 21 21
29 29 29 30 30 31 32 33 32 32 31 30 30 29 29 29 29 28 27 27 27 27 27 27 26 26 26 26 27 27 27 26 26 26 27 27 27 28 29 29 29 30 31 32 32 33 33 33 33 32 31 30 30 30 29 29 29 29 30 30 31 32 32 32 33 33 32 33 34 35 35 33 30 29 29 29 30 30 29 28 27 27 26 27 27 26 26 26
29 29 29 30 31 32 32 33 34 34 33 33 32 32 32 32 31 31 31 30 30 30 29 29 29 29 29 29 30 30 30 29 28 28 28 29 29 30 31 31 31 32 33 34 34 35 36 36 36 35 34 33 33 33 33 32 32 32 32 33 33 33 34 34 34 35 35 36 37 38 39 38 35 32 32 33 34 34 34 33 32 32 32 32 32 32 32 31
28 29 29 30 31 32 33 34 34 34 34 34 34 35 35 35 34 34 34 33 33 33 33 33 32 32 32 32 32 32 32 32 31 30 30 31 31 31 32 33 34 34 35 35 36 37 37 38 38 38 37 36 36 35 35 35 35 35 35 35 35 36 36 37 37 38 38 39 39 40 42 42 40 36 35 36 36 37 38 39 39 38 37 37 37 37 37 36
27 28 28 29 30 32 33 34 34 34 34 35 35 35 36 36 36 36 36 36 35 35 35 35 35 35 35 34 34 34 34 34 34 34 33 33 33 33 34 34 35 36 37 37 38 38 38 38 39 40 40 39 38 38 38 37 37 37 37 37 37 38 39 40 40 40 41 42 42 42 44 45 43 41 40 40 40 41 42 43 43 43 42 42 41 41 40 38
26 27 27 28 29 30 31 32 32 32 33 34 34 35 35 35 36 35 36 36 37 37 36 36 36 36 36 36 36 36 36 35 36 36 35 35 35 35 36 36 36 37 37 38 38 38 38 39 40 40 40 40 39 39 38 38 39 39 39 39 39 39 40 41 41 42 43 44 43 44 45 45 46 46 45 45 44 45 46 47 47 47 46 46 45 44 43 41
27 28 28 28 29 30 30 30 30 31 31 32 33 33 33 34 34 34 35 36 36 36 36 36 36 36 37 37 37 37 37 37 36 37 37 37 37 37 37 37 37 37 37 38 38 39 39 39 39 40 40 40 40 38 38 38 38 38 39 39 40 40 41 41 42 43 43 44 44 44 44 45 46 48 48 48 48 49 50 51 51 50 49 49 49 48 46 45
27 28 28 29 30 30 30 30 31 31 31 32 32 33 33 33 34 35 35 36 36 36 37 37 36 37 37 37 38 38 38 38 38 38 38 39 39 39 39 38 38 38 37 37 38 38 39 39 39 39 39 39 39 38 37 37 36 36 37 39 40 40 41 42 42 42 43 44 44 43 43 43 45 47 47 48 49 50 51 51 51 51 51 50 49 48 47 46
25 26 27 28 29 29 29 30 30 31 31 32 32 32 32 33 34 35 35 36 36 36 36 36 36 36 37 37 38 38 39 39 39 39 39 39 39 39 39 39 38 37 37 37 37 37 38 38 38 38 38 39 39 39 38 38 37 37 38 38 39 40 41 42 42 42 43 43 43 43 43 43 44 45 46 47 48 49 49 49 49 49 48 48 47 47 47 45
24 24 25 25 26 27 27 27 28 28 29 29 30 30 31 31 32 32 33 34 34 35 35 36 36 36 36 37 37 38 39 39 39 39 39 39 39 39 39 39 39 38 37 37 37 37 38 38 38 38 39 39 39 40 40 40 40 40 40 40 40 40 40 41 41 40 41 42 42 43 44 43 43 44 45 45 47 48 49 49 48 48 47 47 46 46 46 45
27 26 26 26 27 27 27 27 27 27 27 28 28 28 29 29 30 30 31 32 33 34 34 35 36 36 36 37 37 38 38 38 38 39 39 39 39 39 39 39 39 39 38 38 38 38 38 39 40 40 40 40 40 41 42 42 43 44 43 43 42 41 40 40 40 40 41 42 41 42 44 44 43 43 44 45 47 48 49 49 49 49 48 48 48 47 47 47
29 29 29 29 29 29 29 29 29 29 29 29 29 30 29 30 30 31 32 32 33 34 34 35 35 36 36 36 36 37 37 37 38 38 38 39 39 40 40 40 40 40 40 40 40 40 40 41 42 42 43 43 42 43 44 45 46 47 46 45 42 41 41 41 40 41 42 42 42 43 45 45 42 42 44 46 47 47 48 48 49 49 49 49 49 49 49 49
29 30 30 30 31 31 31 31 31 31 31 31 32 32 32 32 33 33 34 34 34 34 35 35 35 35 36 36 36 36 37 37 38 39 39 40 40 40 40 40 40 40 40 41 41 41 42 43 43 44 45 44 44 44 45 46 48 48 46 44 42 42 43 42 41 41 41 42 43 45 46 44 43 44 45 45 45 46 47 47 48 48 49 49 50 50 50 50
Wind_Direction
277 279 281 284 285 286 287 287 286 286 286 286 286 285 284 282 279 276 272 270 268 267 267 267 267 267 267 267 266 264 263 262 263 265 266 266 267 267 267 266 265 264 262 261 260 258 256 255 254 251 249 247 245 244 242 241 239 238 238 238 238 238 238 239 239 238 238 239 237 237 236 235 236 236 238 243 246 245 241 240 240 242 242 243 244 245 246 248
275 278 281 283 285 285 286 286 285 285 285 285 286 285 284 281 278 274 271 268 267 266 266 266 266 267 267 267 266 264 263 262 262 263 264 265 266 266 266 266 265 264 263 262 259 257 255 253 252 250 248 246 244 243 242 240 239 238 237 237 237 238 239 240 240 240 240 241 241 240 239 239 239 238 238 241 245 246 245 243 241 242 243 244 245 246 247 249
275 278 281 283 284 285 285 285 284 285 285 286 286 285 283 280 276 272 269 267 265 265 264 265 266 266 266 266 266 265 263 261 260 261 262 263 264 264 265 265 265 264 263 261 259 257 255 252 251 249 248 246 244 243 242 240 238 237 235 234 236 238 240 240 240 241 241 242 243 242 241 242 242 240 240 241 244 246 246 244 240 240 244 244 245 246 247 248
275 279 281 283 284 284 284 284 284 284 285 287 287 286 283 279 275 271 268 266 264 264 264 264 265 265 266 266 266 265 263 260 258 258 259 261 263 264 265 265 264 263 262 261 259 257 254 252 249 248 247 246 244 243 243 241 239 237 234 234 235 237 239 239 239 241 242 243 244 244 244 246 245 244 242 241 243 245 245 242 233 228 234 238 240 242 243 244
276 279 281 282 283 283 283 283 284 285 287 289 290 288 285 281 276 271 267 265 264 263 263 263 264 265 266 266 265 263 261 258 256 257 259 260 262 264 264 265 264 262 260 259 257 255 252 250 248 247 246 246 245 244 244 243 242 240 237 235 235 236 238 239 239 241 243 245 246 247 247 248 249 247 245 242 239 237 235 231 224 222 227 232 235 238 241 244
277 279 280 280 280 280 281 284 286 289 291 294 295 292 288 284 280 275 270 266 264 263 262 262 263 264 266 265 264 262 259 257 256 257 258 260 262 263 264 263 262 260 258 256 254 252 250 248 247 246 246 247 247 247 247 246 245 243 239 236 236 236 238 241 243 244 246 247 248 248 249 250 250 248 245 239 235 234 231 226 224 226 229 231 233 235 239 243
276 277 277 277 277 278 281 286 291 295 298 300 301 297 291 286 283 278 274 269 265 263 261 261 261 263 263 262 261 259 257 256 256 256 258 260 262 263 262 261 260 258 255 252 250 249 248 248 248 248 248 248 249 249 248 248 247 245 242 239 239 240 242 246 248 249 250 249 249 249 250 250 249 248 244 235 232 235 234 231 230 230 229 230 231 233 236 242
273 272 272 273 274 277 282 288 293 299 303 306 307 304 296 288 284 281 277 271 267 263 260 259 258 258 258 258 258 257 256 256 256 257 259 260 261 261 260 259 258 257 254 251 249 248 248 248 248 249 249 249 250 250 251 251 250 248 246 244 243 243 245 249 250 251 250 250 251 248 248 247 246 245 241 235 231 232 232 232 232 228 227 228 230 234 238 242
269 268 269 270 273 278 283 288 292 297 302 306 309 310 303 293 286 281 278 273 269 264 261 259 258 256 255 256 257 257 257 257 257 258 259 260 260 259 257 256 255 254 254 253 252 252 251 251 250 250 250 249 250 251 251 252 251 250 249 248 246 245 247 250 249 249 249 250 250 247 246 244 243 240 238 236 231 229 228 228 228 226 226 229 233 236 238 242
265 265 267 270 274 279 284 286 289 291 294 298 302 306 306 301 292 284 279 275 271 267 263 261 260 257 257 257 258 259 259 258 259 259 260 261 260 259 257 256 254 253 253 254 254 254 253 251 249 248 248 247 247 248 248 248 249 248 248 247 246 245 248 249 248 248 248 250 249 247 245 242 240 236 233 234 231 227 225 224 226 227 228 231 234 236 239 244
262 264 267 271 276 280 283 285 286 287 288 289 292 296 300 301 298 292 283 277 274 271 269 268 266 262 261 260 260 261 260 260 262 262 262 262 262 261 260 259 257 255 254 254 254 252 250 247 245 243 243 244 243 242 241 241 242 243 244 246 246 245 248 248 247 248 248 249 249 248 244 240 239 234 231 232 230 228 226 225 226 228 230 232 234 238 242 246
260 263 267 272 277 281 282 283 284 284 284 285 288 290 292 294 296 296 291 285 279 275 275 274 271 267 264 262 262 262 260 261 264 265 265 266 266 265 263 261 260 260 259 258 257 255 252 248 245 242 240 240 238 236 234 234 235 238 240 243 244 244 246 246 246 247 247 247 248 247 242 238 237 234 233 233 232 231 230 229 230 230 232 234 237 240 244 251
258 262 267 272 277 280 282 283 282 282 283 284 286 288 289 290 291 292 292 291 286 282 280 276 272 269 266 264 263 262 260 261 264 266 267 268 269 269 267 265 263 263 260 258 258 258 256 252 248 242 239 237 235 234 233 233 233 235 236 237 239 240 242 243 242 244 244 243 245 244 239 237 236 234 234 235 234 234 233 233 233 233 235 237 240 245 251 259
256 260 265 271 276 279 281 282 282 281 282 283 285 287 289 290 289 288 287 286 287 286 284 279 274 269 266 264 263 263 262 261 262 263 265 265 267 268 269 268 266 264 259 256 255 256 256 253 250 245 241 239 237 236 234 234 233 232 232 232 233 233 236 238 237 239 240 240 242 241 238 237 237 235 235 236 236 236 235 236 237 238 239 242 246 251 257 262
255 259 263 268 273 277 279 281 282 282 283 283 285 286 288 289 289 287 284 282 282 282 283 282 278 273 267 264 263 263 263 262 262 261 261 262 263 265 268 269 268 266 261 257 255 255 254 253 253 250 247 246 242 238 235 234 232 229 227 228 228 227 230 233 233 236 238 239 242 242 240 241 241 239 238 239 239 239 239 240 241 243 244 247 251 255 259 262
256 258 261 266 270 274 278 281 282 282 283 284 285 287 288 288 288 287 285 282 279 277 277 277 277 274 271 267 263 263 264 263 262 261 261 261 262 263 266 270 271 270 266 262 257 255 255 254 255 254 252 249 243 237 235 233 229 226 224 223 222 222 224 227 230 234 237 241 244 245 244 244 244 244 244 244 245 245 245 246 246 247 249 251 255 259 263 266
257 258 261 265 269 274 277 280 282 282 283 284 286 288 288 288 288 286 285 282 279 275 273 273 273 272 272 270 264 263 263 263 262 261 261 261 262 263 264 268 271 272 269 265 260 256 255 255 254 253 250 246 241 238 234 232 229 225 223 221 219 221 223 224 228 232 236 241 245 247 247 246 246 245 246 248 250 251 250 251 251 252 254 257 260 264 266 265
258 259 261 265 269 273 276 279 281 281 282 284 286 288 289 289 288 286 284 282 280 276 273 271 270 272 274 271 266 263 262 262 262 261 261 260 261 261 262 264 266 268 267 264 259 255 255 255 251 248 245 242 239 238 235 232 229 224 221 219 218 223 226 227 230 233 235 239 243 246 248 248 248 247 247 248 251 254 255 255 256 258 261 263 265 266 265 262
259 260 262 265 268 272 276 279 280 281 282 283 286 288 288 288 287 285 283 282 280 278 275 272 269 270 272 271 269 266 263 263 263 263 263 262 261 260 260 260 261 263 263 261 258 254 252 253 252 248 245 242 239 236 235 232 229 226 224 223 222 226 231 233 234 237 238 239 241 244 247 248 248 247 247 248 250 254 257 258 260 263 265 266 266 264 263 262
259 260 262 265 268 272 275 278 280 281 282 283 286 287 287 287 285 283 281 280 279 278 275 273 270 268 267 269 270 270 268 267 266 265 264 263 263 263 261 260 260 261 262 262 261 258 254 251 252 251 251 249 246 241 238 234 232 231 230 231 231 232 236 240 241 242 242 242 243 245 248 250 250 248 246 247 249 252 256 259 261 263 264 263 262 261 261 261
259 260 262 265 269 272 275 278 280 281 282 283 285 286 286 286 285 283 281 278 277 275 274 272 270 268 266 267 268 269 269 268 266 263 261 261 262 263 261 260 260 260 262 264 265 263 260 255 253 252 254 255 254 251 248 244 241 239 238 239 240 240 241 244 246 247 246 246 248 250 250 251 251 249 245 244 246 248 251 255 257 258 258 258 259 259 258 257
259 261 263 267 270 273 275 278 279 281 282 283 284 285 285 285 284 283 281 279 276 274 272 269 268 266 264 263 263 263 264 264 263 261 259 259 258 258 258 258 258 258 259 260 262 262 261 257 255 254 255 256 256 255 254 253 251 248 247 246 246 247 246 247 248 248 248 248 249 251 252 252 249 245 241 239 242 244 247 250 253 255 255 256 257 258 258 256
261 264 267 270 272 275 277 279 280 281 282 283 283 284 284 284 284 283 281 279 277 274 271 268 266 264 261 260 260 261 262 262 261 260 260 259 257 257 257 257 257 256 255 255 256 258 258 255 256 257 257 257 257 256 255 255 255 254 253 252 252 252 251 251 251 251 251 250 249 250 251 253 252 247 240 239 242 245 247 249 252 256 257 257 257 257 258 257
264 267 271 273 276 278 279 280 281 281 282 282 282 282 282 283 283 283 282 281 279 275 271 268 264 262 260 259 259 260 260 259 259 259 258 258 258 257 258 258 257 256 255 255 256 258 258 256 258 260 260 260 260 259 258 257 257 255 255 255 254 253 253 253 254 255 256 255 253 251 250 251 253 253 248 244 244 247 250 251 253 256 258 258 258 257 257 257
268 271 274 276 278 280 281 281 280 280 280 279 279 280 281 282 283 283 282 281 279 275 272 269 264 262 260 259 258 259 259 259 258 258 257 257 257 257 258 257 257 258 258 259 261 261 261 261 260 260 260 260 261 262 262 261 259 257 255 254 253 253 254 256 257 258 260 260 259 257 253 250 248 252 252 249 247 248 250 252 254 256 258 258 258 258 258 258
271 274 276 278 280 281 281 281 281 279 278 278 278 279 280 280 281 281 280 278 275 273 271 268 265 263 262 261 260 260 260 259 259 258 258 258 258 257 258 258 258 260 261 262 263 261 261 261 261 260 260 261 262 263 263 261 259 258 255 253 252 253 254 256 258 259 260 260 261 260 257 253 248 247 251 253 251 251 251 252 254 256 259 260 259 260 260 260
274 276 278 280 282 282 281 281 280 279 278 278 278 279 279 280 280 280 280 278 275 273 270 266 264 263 263 263 263 261 259 258 259 259 258 258 257 257 257 259 260 262 264 263 261 259 259 260 260 260 260 261 261 260 260 259 258 257 256 255 254 254 254 255 257 258 258 258 259 260 259 257 252 246 249 253 253 254 255 255 256 258 260 261 261 260 260 261
276 279 281 282 283 282 281 280 279 278 278 279 279 280 280 279 278 277 278 278 277 275 271 266 262 260 261 262 261 261 260 261 261 259 257 256 256 257 257 260 262 263 264 262 260 258 257 258 260 261 262 261 259 258 258 258 258 257 256 256 256 256 256 256 257 258 258 258 259 260 260 260 256 248 247 250 251 253 256 259 261 263 263 263 263 263 263 262
280 282 283 284 283 282 280 279 279 279 279 280 280 281 280 277 274 273 275 278 276 273 270 266 263 260 259 259 261 260 259 261 262 261 261 259 259 258 257 258 259 260 262 261 261 260 259 258 261 262 262 261 260 260 259 259 258 258 257 257 257 257 258 259 260 261 261 261 262 264 263 262 260 253 248 248 250 251 255 258 262 263 263 264 265 267 268 267
283 284 285 284 282 279 278 277 278 278 278 278 278 278 275 271 268 266 270 274 269 266 269 270 269 267 262 258 258 258 256 256 260 264 266 265 265 263 260 259 258 259 260 260 260 262 262 262 263 263 260 258 259 260 260 259 258 258 258 258 259 260 261 263 265 266 267 267 267 267 266 264 264 260 254 252 252 252 254 256 258 259 260 263 265 268 270 272
284 285 285 283 280 276 275 275 275 275 275 273 272 270 267 263 261 260 261 263 263 265 271 276 277 274 268 260 254 254 255 256 257 260 261 261 262 262 261 261 259 259 261 261 261 262 262 263 264 264 262 258 257 257 257 258 259 260 260 261 263 265 266 268 270 271 271 273 271 269 268 267 268 266 261 257 255 255 255 255 255 255 257 260 263 266 269 272
282 283 283 281 277 274 273 272 272 272 271 269 267 265 261 257 257 257 255 258 263 264 267 276 282 279 274 267 258 253 255 259 260 259 256 255 255 255 255 256 258 261 264 267 268 267 268 267 265 264 263 261 258 255 256 257 259 261 263 264 266 267 268 269 271 271 272 273 272 270 269 269 269 269 266 262 258 255 255 255 254 255 257 260 262 265 268 271
279 280 280 277 274 271 269 269 268 268 267 266 265 262 257 253 253 254 254 258 262 261 266 276 283 283 278 270 264 256 255 259 260 258 257 255 256 256 256 257 261 264 266 268 270 270 271 270 266 263 261 261 260 258 257 257 258 259 262 264 265 266 268 269 269 269 269 268 268 269 269 269 270 271 271 269 265 259 256 256 256 257 259 260 262 265 269 272
274 276 276 274 271 268 266 266 266 265 264 263 263 261 257 253 252 252 255 260 261 263 270 277 281 284 280 273 267 261 258 259 258 255 255 255 258 261 262 263 266 268 268 269 270 270 269 269 269 268 263 260 260 260 258 256 257 260 261 263 265 269 271 272 270 270 270 269 268 268 269 270 270 271 271 271 269 264 257 256 258 261 262 262 263 265 267 270
269 270 270 270 268 265 263 262 262 263 263 263 263 261 259 257 255 254 256 261 263 264 269 275 278 279 277 275 272 266 261 259 257 254 254 256 259 263 266 268 270 271 272 273 274 274 271 269 271 273 270 265 259 258 258 258 259 261 262 264 268 271 272 272 272 272 272 271 269 268 268 270 270 270 270 270 270 265 258 254 255 259 262 264 265 266 267 268
266 265 264 264 262 260 259 259 258 259 259 260 261 261 261 260 259 257 257 259 260 262 265 270 273 273 273 274 273 270 265 260 257 256 256 257 260 263 266 270 273 274 275 277 278 278 276 272 269 269 271 270 263 257 257 258 257 258 261 264 268 270 270 272 273 273 272 271 270 268 269 269 270 269 269 269 269 266 260 255 253 257 260 262 264 266 267 266
264 262 261 260 258 257 256 256 254 255 255 256 258 259 260 261 260 258 256 257 258 260 264 267 269 270 272 274 275 275 273 267 261 259 259 261 263 265 268 270 272 274 275 277 279 280 280 278 273 268 266 267 265 261 259 258 257 257 260 262 263 266 269 270 272 273 272 272 270 268 267 267 266 268 269 267 266 264 260 256 255 256 258 260 261 261 262 262
263 261 259 257 256 255 254 253 253 252 252 253 255 256 258 259 259 258 256 257 259 261 263 267 270 272 275 277 278 278 278 275 271 268 266 267 268 270 271 272 274 275 276 278 278 279 280 280 278 274 269 265 262 260 257 258 259 258 259 260 259 262 266 269 270 272 273 274 272 270 268 266 264 266 267 264 263 264 262 260 259 259 257 255 254 254 253 253
263 262 259 257 256 256 255 253 253 252 252 253 255 256 257 258 259 259 258 258 260 262 265 267 270 272 276 278 279 279 279 279 278 276 274 273 273 274 275 276 277 278 279 279 279 280 281 281 280 278 274 270 265 260 256 255 256 256 256 257 258 259 261 264 267 268 270 271 271 271 269 266 265 265 265 263 263 265 265 264 261 260 257 253 249 247 245 244
264 263 260 258 257 256 256 255 254 254 254 255 256 257 259 260 261 261 261 262 262 264 267 269 271 272 275 277 278 278 278 278 278 278 276 276 276 276 276 277 277 278 279 280 280 281 281 281 280 278 276 273 270 266 262 258 257 256 255 255 256 257 258 261 263 264 265 267 268 268 268 267 266 263 263 263 264 265 264 263 261 259 257 255 251 249 249 248
263 263 262 261 259 257 256 256 256 256 256 256 257 259 261 262 264 264 264 265 266 267 268 271 272 273 274 276 277 277 276 275 275 275 275 275 276 276 276 276 275 275 276 277 278 278 278 278 278 276 274 272 270 269 267 265 262 261 260 259 258 258 259 260 261 262 263 264 265 265 266 266 265 261 261 262 264 264 263 262 261 259 258 257 256 255 256 256
262 262 263 263 262 261 259 258 258 258 258 258 259 261 262 264 266 267 268 268 269 270 271 272 273 274 275 275 275 275 275 273 272 271 272 273 273 273 274 274 273 272 271 272 273 275 276 277 277 275 273 270 269 269 267 267 266 264 264 264 264 264 263 263 263 263 263 263 263 264 265 265 263 262 262 262 263 265 265 265 264 262 260 259 258 259 260 261
263 262 262 263 263 263 262 261 261 261 261 261 261 262 263 265 266 268 270 271 272 272 272 273 273 274 275 274 274 274 274 274 272 271 270 271 271 271 272 272 273 272 271 271 271 272 274 275 276 275 274 271 269 268 267 267 267 266 266 266 266 267 267 267 266 266 265 264 265 266 267 266 265 264 262 262 264 266 267 268 268 266 263 261 261 262 263 263
266 265 264 263 263 263 263 263 263 263 263 264 264 264 264 265 266 268 271 272 273 273 273 273 273 274 274 274 273 273 273 273 273 272 271 271 271 271 271 271 271 271 272 272 272 272 272 273 274 274 274 272 271 270 269 269 268 267 267 266 265 265 265 265 265 266 266 265 265 266 267 268 268 267 265 264 264 265 266 268 269 269 268 267 266 266 265 264
270 268 267 265 264 264 264 264 264 264 264 264 264 264 265 265 266 267 268 269 270 271 272 272 273 273 274 274 273 273 273 273 273 274 274 273 273 272 272 271 271 271 271 272 273 273 272 272 273 272 272 272 271 270 270 269 269 269 268 267 266 264 263 263 264 264 264 265 265 265 265 267 268 268 268 267 266 267 268 269 270 270 271 272 272 272 270 268
270 270 270 269 268 267 267 267 266 265 265 265 264 265 265 266 266 266 266 267 268 269 270 271 271 271 272 272 273 273 273 273 273 274 274 273 273 273 273 272 272 271 271 271 272 272 272 271 272 271 272 272 272 270 269 268 268 268 268 268 267 266 265 264 264 264 264 265 266 265 265 266 267 267 268 268 268 268 269 269 270 271 272 273 274 274 273 272
269 269 269 269 269 269 269 269 268 268 267 266 266 266 266 266 266 266 266 266 267 268 268 269 270 270 270 271 272 273 273 273 273 273 273 274 274 274 274 274 273 273 272 271 271 271 270 270 270 270 270 270 271 270 269 268 267 266 265 265 265 266 266 265 265 266 266 266 268 268 268 268 268 267 268 268 268 268 268 268 269 270 271 271 271 271 271 271
272 271 270 270 270 270 270 270 270 269 268 267 267 267 266 265 265 266 266 267 267 267 268 269 269 270 270 271 272 273 273 274 274 275 275 276 276 276 276 276 275 274 273 272 271 270 270 269 268 268 267 268 268 269 269 269 268 266 265 264 264 264 265 265 266 267 268 269 271 272 271 270 270 269 269 269 268 269 269 269 269 270 269 269 269 269 268 267
274 273 272 272 272 273 273 273 272 272 271 269 268 267 267 266 266 266 266 267 268 267 268 269 269 270 270 271 271 272 273 274 275 275 276 276 276 276 276 276 276 276 275 274 272 271 270 269 268 267 267 267 267 268 269 270 269 269 268 266 264 264 264 265 266 267 268 268 269 270 269 267 268 268 268 268 268 269 269 269 269 269 268 268 267 267 266 264
272 272 272 272 272 273 273 274 274 274 274 273 272 270 269 269 268 267 267 268 269 269 269 270 270 271 271 271 272 272 272 273 274 274 274 275 275 275 275 275 276 276 276 275 274 273 271 270 269 268 267 267 268 269 270 270 270 270 269 268 267 268 268 267 267 267 266 265 264 265 264 263 264 266 266 266 266 266 267 269 269 269 269 267 266 266 264 263
271 270 270 270 270 270 270 271 271 272 272 273 273 273 272 271 271 271 270 269 270 270 271 271 272 272 272 272 272 272 273 273 273 273 273 273 273 274 274 274 275 275 275 275 274 273 272 271 271 270 269 269 269 270 270 270 270 270 270 270 272 272 271 269 267 266 265 265 264 263 263 263 263 264 264 264 264 265 266 268 268 269 270 269 268 267 265 264
272 271 270 269 269 269 269 269 269 269 270 270 271 271 271 271 271 272 272 271 271 272 272 273 273 273 273 273 273 273 273 273 273 273 273 273 273 273 273 273 273 273 273 272 272 272 272 272 271 271 271 271 271 271 271 271 271 271 273 274 274 272 270 269 268 267 266 265 265 264 264 264 264 264 264 265 266 267 267 267 267 267 267 268 268 268 267 266